Skip Page Navigation
NASA JPL Caltech
NASA Logo - Jet Propulsion Laboratory + View the NASA Portal
+ Center for Near-Earth Object Studies
JPL Home Earth Solar System Stars & Galaxies Technology
JPL Solar System Dynamics
BODIES ORBITS EPHEMERIDES TOOLS PHYSICAL DATA DISCOVERY FAQ SITE MAP
IMPORTANT: The SSD Announcement email list is now available. Major changes are coming in the near future, including possible hostname and/or URL changes. To be notified of such changes, subscribe to this email list.

Please visit this page for more details.


JPL Small-Body Database Browser
Search: [ help ]  
(2014 KP76)
Classification: Amor [NEO]          SPK-ID: 3672901
Ephemeris | Orbit Diagram | Orbital Elements | Mission Design | Physical Parameters | Close-Approach Data ]

[ hide orbit diagram ]

For accurate long-term ephemerides, please instead use our Horizons system.This orbit viewer was implemented using two-body methods, and hence should not be used for determining accurate long-term trajectories (over several years or decades) or planetary encounter circumstances.


[ revert to old Java-based viewer ]

Orbital Elements at Epoch 2458600.5 (2019-Apr-27.0) TDB
Reference: JPL 11 (heliocentric ecliptic J2000)
 Element Value Uncertainty (1-sigma)   Units 
e .4798257602411068 6.968e-05  
a 2.169140484604107 0.00031518 au
q 1.128331002509178 1.2812e-05 au
i 8.636043988992334 0.0007983 deg
node 240.4483027722743 0.00066336 deg
peri 10.92512903744371 0.00031131 deg
M 190.2380635740075 0.1199 deg
tp 2459150.759775495499
(2020-Oct-28.25977550)
0.50858 TDB
period 1166.890077651407
3.19
0.25433
0.0006963
d
yr
n .3085123499589352 6.7241e-05 deg/d
Q 3.209949966699035 0.00046641 au
  Orbit Determination Parameters
   # obs. used (total)      32  
   data-arc span      53 days  
   first obs. used      2014-05-25  
   last obs. used      2014-07-17  
   planetary ephem.      DE431  
   SB-pert. ephem.      SB431-N16  
   condition code      6  
   norm. resid. RMS      .53242  
   source      ORB  
   producer      Otto Matic  
   solution date      2017-Apr-06 08:40:17  

Additional Information
 Earth MOID = .11708 au 
 Jupiter MOID = 1.84795 au 
 T_jup = 3.519 
[ show covariance matrix ]

Ephemeris | Orbit Diagram | Orbital Elements | Mission Design | Physical Parameters | Close-Approach Data ]

Physical Parameter Table
Parameter Symbol Value Units Sigma Reference Notes
absolute magnitude H 23.2   n/a E2014M09  

[ show close-approach data ]
Ephemeris | Orbit Diagram | Orbital Elements | Mission Design | Physical Parameters | Close-Approach Data ]
ABOUT SSD CREDITS/AWARDS PRIVACY/COPYRIGHT GLOSSARY LINKS
FirstGov
(server date/time)  
NASA Home Page
Site Manager:   Ryan S. Park
Webmaster  Alan B. Chamberlin